Regional Weather Roundup
Issued by NWS

Home | Current Version | Previous Version | Graphics & Text | Print | Product List | Glossary On
Versions: 1 2 3 4 5 6 7 8 9 10 11 12 13 14 15 16 17 18 19 20 21 22 23 24 25 26 27 28 29 30 31 32 33 34 35 36 37 38 39 40 41 42 43 44 45 46 47 48 49 50
000
ASUS43 KOAX 221410
RWRNE

WEATHER ROUNDUP FOR NEBRASKA
NATIONAL WEATHER SERVICE OMAHA NE
900 AM CDT FRI JUL 22 2016

NOTES: SATELLITE DATA IS BEING USED TO AUGMENT CLOUD COVER ABOVE
       12000 FEET.
       "FAIR" INDICATES FEW OR NO CLOUDS BELOW 12,000 FEET WITH NO
       SIGNIFICANT WEATHER AND/OR OBSTRUCTIONS TO VISIBILITY.

  * THESE STATIONS DO NOT REPORT WEATHER SUCH AS RAIN...SNOW OR FOG.

NEZ001>004-019>022-054>056-221500-
NEBRASKA PANHANDLE

CITY           SKY/WX    TMP DP  RH WIND       PRES   REMARKS
SCOTTSBLUFF    CLOUDY    76  65  68 CALM      30.13S
ALLIANCE       CLOUDY    72  66  81 N3        30.13R
CHADRON        CLOUDY    76  64  66 CALM      30.08F
KIMBALL        CLOUDY    75  62  64 W3        30.19S
SIDNEY         CLOUDY    74  65  73 N7        30.17R
$$

NEZ057>060-069>072-079>082-221500-
SOUTHWEST NEBRASKA

CITY           SKY/WX    TMP DP  RH WIND       PRES   REMARKS
NORTH PLATTE   SUNNY     82  74  76 CALM      30.04S
IMPERIAL       SUNNY     78  69  73 N6        30.08S
LEXINGTON      SUNNY     79  73  83 N3        29.99S
MCCOOK         SUNNY     82  70  66 W3        30.02R
OGALLALA       CLOUDY    82  71  69 CALM      30.08S
$$

NEZ005>010-023>029-035>040-094-221500-
NORTH CENTRAL NEBRASKA

CITY           SKY/WX    TMP DP  RH WIND       PRES   REMARKS
VALENTINE      SUNNY     79  71  76 CALM      30.05R
AINSWORTH      SUNNY     78  76  94 NW5       30.04S
BROKEN BOW     SUNNY     82  76  81 N6        30.02R
O`NEILL        FOG       78  76  95 N5        30.00S VSB 1/4
ORD            SUNNY     81  74  79 N3        29.97R
THEDFORD       SUNNY     82  74  77 NE3       30.07S
$$

NEZ041-046>049-061>064-073>077-083>087-221500-
SOUTH CENTRAL NEBRASKA

CITY           SKY/WX    TMP DP  RH WIND       PRES   REMARKS
GRAND ISLAND   SUNNY     83  75  77 NW6       29.96S HX  90
AURORA         SUNNY     81  74  80 SW3       29.95S
HASTINGS       SUNNY     82  69  64 SW5       29.98R
HEBRON         SUNNY     83  68  60 SW8G16    29.95S
HOLDREGE       SUNNY     81  73  77 N5        29.99R
KEARNEY *      SUNNY     81  73  78 N8        29.98S
YORK           SUNNY     81  72  74 SW6       29.95S
$$

NEZ011>018-030>034-042>045-221500-
NORTHEAST NEBRASKA

CITY           SKY/WX    TMP DP  RH WIND       PRES   REMARKS
NORFOLK        SUNNY     81  71  71 CALM      29.94R
ALBION         SUNNY     82  75  78 N3        29.95F
BLAIR          SUNNY     83  74  74 S7        29.94S
FREMONT        SUNNY     83  71  68 S5        29.94R
TEKAMAH        SUNNY     83  75  77 SE9       29.92R HX  90
WAYNE          SUNNY     82  78  88 NE6       29.95R HX  91
$$

NEZ050>053-065>068-078-088>093-221500-
SOUTHEAST NEBRASKA

CITY           SKY/WX    TMP DP  RH WIND       PRES   REMARKS
LINCOLN        SUNNY     85  71  63 S7        29.94R HX  90
OMAHA EPPLEY   MOSUNNY   84  73  69 SE12      29.93S HX  90
BEATRICE       SUNNY     86  69  58 SW10      29.95S HX  90
FALLS CITY     SUNNY     85  73  67 SW8       29.96S HX  91
NEBRASKA CITY  SUNNY     82  73  74 S7        29.96R
PLATTSMOUTH    SUNNY     81  73  77 S5        29.96R
$$

NEZ044-045-051>053-067-221500-
OMAHA AREA

CITY           SKY/WX    TMP DP  RH WIND       PRES   REMARKS
OMAHA EPPLEY   MOSUNNY   84  73  69 SE12      29.93S HX  90
BLAIR          SUNNY     83  74  74 S7        29.94S
FREMONT        SUNNY     83  71  68 S5        29.94R
MILLARD        SUNNY     85  74  70 SE6       29.93S HX  92
OFFUTT AFB     SUNNY     83  75  77 SE7       29.94R
PLATTSMOUTH    SUNNY     81  73  77 S5        29.96R
WAHOO          FAIR      82  74  77 S3        29.93S
$$




USA.gov is the U.S. government's official web portal to all federal, state and local government web resources and services.